Location: Melizzano
(41.1500°N, 14.5000°E)
Time: 08:23:46
(UTC+00:00)

Cosmos 489 Rocket - Pass Details

Date: 11 May 2021
Orbit: 952 x 983 km, 74.0° (Epoch: 20 June)

Event Time Altitude Azimuth Distance (km) Brightness Sun altitude
Rises 22:04:34 0° 341° (NNW) 3,644 8.7 -29.4°
Reaches altitude 10° 22:07:06 10° 342° (NNW) 2,698 7.7 -29.5°
Enters shadow 22:13:18 82° 60° (ENE) 978 4.4 -29.8°
